Location: Marcellina
(42.0167°N, 12.8000°E)
Time: 06:51:48
(UTC+00:00)

Daily predictions for brighter satellites

Satellite Brightness Start Highest point End
(mag) Time Altitude Azimuth Time Altitude Azimuth Time Altitude Azimuth
Cosmos 1725 Rocket 4.3 17:27:24 10° SSW 17:33:40 76° W 17:39:56 10° N
SL-24 R/B 4.4 17:31:01 10° S 17:35:19 79° WSW 17:39:55 10° NNW
CZ-2C R/B 3.4 17:32:29 10° SE 17:37:28 48° ENE 17:42:44 10° N
Cosmos 2263 Rocket 2.1 17:32:03 10° SSW 17:37:35 77° ESE 17:43:11 10° NNE
Meteor 2-9 Rocket 4.3 17:37:17 10° S 17:43:05 66° E 17:48:49 10° NNE
USA 186 3.8 17:42:06 10° E 17:43:10 11° ENE 17:44:16 10° NE
Cosmos 1844 Rocket 4.0 17:41:20 10° SE 17:44:53 18° E 17:48:27 10° ENE
Cosmos 2084 Rocket 3.6 17:42:24 10° NNW 17:46:51 68° NE 17:51:22 10° SE
HJ-1C 3.8 17:47:29 10° SE 17:50:34 38° ENE 17:53:40 10° N
Cosmos 2227 4.4 17:45:01 10° SSW 17:50:46 79° WNW 17:56:31 10° NNE
Cosmos 1975 Rocket 3.1 17:48:53 10° N 17:53:08 54° E 17:57:20 10° SSE
Cosmos 1898 Rocket 3.8 17:48:25 10° SSW 17:53:35 74° WNW 17:58:46 10° NNE
Milstar 3 Cent rocket 4.2 17:52:45 10° SSW 17:55:35 13° S 17:57:59 10° SE
Cosmos 1943 3.2 17:51:10 10° NNW 17:56:50 77° ENE 18:02:30 10° SSE
COSMO-SKYMED 1 4.3 17:53:00 10° N 17:57:02 38° WNW 18:01:03 10° SW
USA 234 4.1 17:54:26 10° ENE 17:59:51 27° SE 18:05:14 10° S
Cosmos 1867 3.9 17:58:21 10° NNW 18:03:39 48° NE 18:08:20 13° SE
CSL-04 Debris 4.1 18:00:57 10° SSE 18:06:20 85° ENE 18:11:45 10° NNW
Lacrosse 5 rocket 4.0 18:04:48 10° WNW 18:07:36 17° NNW 18:10:28 10° NNE
Cosmos 372 Rocket 4.1 18:03:01 10° S 18:08:05 51° ESE 18:13:10 10° NNE
Sich 1 Rocket 3.6 18:05:24 10° S 18:09:50 67° E 18:14:21 10° NNE
Meteor 1-12 Rocket 4.4 18:07:42 10° S 18:13:26 53° E 18:19:05 10° NNE
CSL-04 Rocket 3.7 18:09:22 10° SSE 18:14:46 86° WSW 18:20:18 10° NNW
Meteor 1-21 4.3 18:09:43 10° NNW 18:15:21 82° W 18:20:55 10° S
MOS 1 Rocket 3.0 18:11:21 10° NNE 18:15:48 69° E 18:20:03 10° S
Cosmos 1603 4.2 18:11:43 10° NNW 18:17:18 63° WSW 18:22:49 10° S
Cosmos 2150 Rocket 4.5 18:13:10 10° S 18:18:06 40° ESE 18:23:08 10° NE
SJ 16-02 4.2 18:14:57 10° WSW 18:18:14 20° WNW 18:21:32 10° NNW
OBJECT-B 3.1 18:19:21 12° NE 18:19:21 12° NE 18:20:03 10° NE
Cosmos 1513 Rocket 4.5 18:14:44 10° S 18:20:57 65° E 18:27:04 10° NNE
Cosmos 1937 Rocket 4.2 18:16:34 10° SSW 18:21:44 57° WNW 18:26:53 10° NNE
Cosmos 1125 Rocket 4.2 18:21:38 10° SSE 18:26:13 31° E 18:30:50 10° NE
Okean 2 Rocket 3.0 18:23:56 10° S 18:28:23 67° E 18:32:51 10° NNE
Cosmos 1464 Rocket 3.9 18:23:49 10° S 18:29:54 73° E 18:36:03 10° NNE
Abrixas rocket 3.9 18:28:06 10° WNW 18:30:25 22° N 18:31:44 16° NE
Okean 1 Rocket 4.4 18:31:11 22° ENE 18:31:11 22° ENE 18:33:57 10° NE
SL-08 RB Rocket 3.7 18:26:32 12° SSE 18:30:40 59° ENE 18:35:11 10° N
NOSS 2-2 (E) 4.2 18:27:57 10° SW 18:31:19 45° NW 18:35:02 10° NNE
ATLAS 2AS CENTAUR R/B 3.8 18:30:17 10° SSE 18:36:25 25° ESE 18:42:35 10° ENE
Cosmos 1300 Rocket 3.4 18:32:37 10° S 18:37:00 81° E 18:41:27 10° N
CZ-2C R/B 2.2 18:36:39 10° WSW 18:39:37 25° S 18:39:59 25° S
NOSS 2-2 (D) 4.1 18:36:36 10° SW 18:39:58 47° NW 18:43:41 10° NNE
USA 102 3.8 18:38:58 25° SSE 18:42:57 76° ENE 18:45:14 18° NNW
BREEZE-M R/B 4.5 18:33:11 10° WSW 18:46:40 73° NNW 18:48:53 24° NE
CENTAUR R/B 3.7 18:40:05 10° NNW 18:47:42 44° NE 18:51:58 27° E
H-2A R/B 2.8 18:42:57 10° S 18:47:44 50° W 18:52:39 10° NNW
Cosmos 1174 4.4 18:43:29 10° SSW 18:48:15 81° ESE 18:54:21 10° NNE
CZ-4 R/B 4.4 18:46:21 10° SW 18:49:15 18° W 18:52:09 10° NW
Cosmos 1674 3.3 18:49:02 10° N 18:52:10 38° NE 18:52:10 38° NE
Exosat Rocket 3.7 18:47:25 10° S 18:53:05 51° ESE 18:57:58 10° NNE
ATLAS 3B R/B 4.3 18:49:13 10° NNW 18:54:03 20° NNE 18:56:56 16° ENE
ISS -2.7 18:51:42 10° W 18:54:56 42° NNW 18:56:09 29° NNE
Cosmos 1048 Rocket 4.0 18:50:57 10° NNW 18:56:14 62° ENE 18:58:02 40° SE
Cosmos 1536 Rocket 3.4 18:52:48 10° N 18:57:16 78° E 18:58:59 37° SSE
USA 238 DEB 3.9 18:52:01 10° NNW 18:59:12 63° NE 19:02:30 35° ESE
USA 238 3.9 18:52:07 10° NNW 18:59:19 63° NE 19:02:35 35° ESE
In-Cosmos 22 4.1 18:54:36 10° NNW 18:59:54 78° W 19:04:25 15° S
ARGOS 3.9 18:56:01 10° S 19:01:14 53° W 19:06:29 10° NNW
Meteor 1-24 Rocket 4.4 19:00:11 10° N 19:04:56 33° ENE 19:04:56 33° ENE
CZ-2C R/B 2.7 19:01:29 10° NNE 19:07:03 84° WNW 19:12:40 10° SSW
Cosmos 1025 Rocket 3.5 19:02:53 10° NNW 19:07:12 59° W 19:10:02 21° SSW
Cosmos 2151 Rocket 4.1 19:05:29 10° SSW 19:09:51 61° W 19:14:19 10° N
Cosmos 1707 4.4 19:06:54 10° NNW 19:10:21 32° W 19:13:46 10° SSW
USA 186 3.2 19:13:02 32° WSW 19:13:29 34° W 19:16:27 10° NNW
KORONAS-FOTON 4.2 19:10:23 10° N 19:13:37 57° NNE 19:13:37 57° NNE
Ariane Rocket 3.4 19:12:56 22° S 19:16:10 62° WSW 19:21:12 10° NNW
SJ-6B 3.1 19:16:15 53° SW 19:16:39 57° W 19:20:21 10° NNW
Cosmos 1844 3.6 19:13:40 10° SSW 19:19:23 87° ESE 19:25:05 10° NNE
Nadezhda 4 Rocket 4.2 19:18:48 10° NNW 19:24:51 66° W 19:29:17 19° S
Cosmos 494 Rocket 3.8 19:20:40 10° NNW 19:25:57 73° ENE 19:26:06 73° E
NOSS 3-2 (A) 4.0 19:19:18 10° NW 19:27:00 87° WSW 19:30:19 42° SSE
Cosmos 1844 Rocket 3.0 19:22:39 10° SW 19:28:09 64° WNW 19:33:43 10° NNE
SPOT 3 Rocket 3.4 19:32:57 84° ESE 19:33:04 86° ENE 19:38:14 10° NNW
Resurs 01 Rocket 2.6 19:42:54 42° N 19:42:54 42° N 19:45:52 10° N
USA 234 3.2 19:37:13 13° NE 19:43:16 83° NW 19:49:50 10° SW
Lacrosse 5 rocket 4.2 19:46:49 10° NNW 19:48:26 12° N 19:49:28 11° NNE
OBJECT-B 3.7 19:52:33 17° NW 19:52:33 17° NW 19:53:30 10° NNW
Cosmos 1833 Rocket 4.0 19:47:48 10° N 19:51:25 29° NNE 19:51:25 29° NNE
Cosmos 1634 Rocket 4.1 19:59:03 58° SW 20:00:10 71° W 20:06:21 10° N
NOSS 3-2 (C) 4.0 19:54:06 10° NW 20:01:50 83° WSW 20:03:03 68° SSE
BREEZE-M TANK 3.8 19:59:44 10° W 20:04:38 43° WNW 20:04:38 43° WNW
ATLAS 2AS CENTAUR R/B 3.0 20:18:47 10° SW 20:26:43 77° NW 20:34:40 10° NNE
Cosmos 2082 Rocket 3.9 20:29:44 10° N 20:32:16 25° N 20:32:16 25° N
CENTAUR R/B 3.5 20:30:45 10° NW 20:38:50 58° WSW 20:39:10 57° SW
ATLAS 3B R/B 3.4 20:39:09 10° NNW 20:44:10 49° N 20:44:10 49° N
